Regional Weather Roundup
Issued by NWS Little Rock, AR

Home | Current Version | Previous Version | Text Only | Print | Product List | Glossary Off
Versions: 1 2 3 4 5 6 7 8 9 10 11 12 13 14 15 16 17 18 19 20 21 22 23 24 25 26 27 28 29 30 31 32 33 34 35 36 37 38 39 40 41 42 43 44 45 46 47 48 49 50

000
ASUS44 KLZK 280605
RWRLZK

WEATHER ROUNDUP FOR ARKANSAS
NATIONAL WEATHER SERVICE LITTLE ROCK AR
100 AM CDT THU MAY 28 2015

NOTE: "FAIR" INDICATES FEW OR NO CLOUDS BELOW 12,000 FEET WITH NO
SIGNIFICANT WEATHER AND/OR OBSTRUCTIONS TO VISIBILITY.

ARZ001-003-010-029-280700-
NORTHWEST ARKANSAS

CITY           SKY/WX    TMP DP  RH WIND       PRES   REMARKS
FAYETTEVILLE   MOCLDY    63  63 100 E3        30.12R
6HR MIN TEMP:  63; 6HR MAX TEMP:  79;

FORT SMITH     MOCLDY    70  67  90 NE6       30.08R
6HR MIN TEMP:  70; 6HR MAX TEMP:  82;

HARRISON       CLOUDY    65  64  97 SE5       30.14R
6HR MIN TEMP:  65; 6HR MAX TEMP:  73;

BENTONVILLE    MOCLDY    66  63  88 CALM      30.13R
6HR MIN TEMP:  66; 6HR MAX TEMP:  81;

ROGERS         MOCLDY    66  64  93 SE3       30.14R
6HR MIN TEMP:  66; 6HR MAX TEMP:  81;

SILOAM SPGS    MOCLDY    66  59  77 E5        30.13R
6HR MIN TEMP:  66; 6HR MAX TEMP:  81;

HIGHFILL       MOCLDY    65  62  90 CALM      30.12R
6HR MIN TEMP:  64; 6HR MAX TEMP:  80;

$$

ARZ004-005-016-280700-
NORTH CENTRAL ARKANSAS

CITY           SKY/WX    TMP DP  RH WIND       PRES   REMARKS
BATESVILLE     PTCLDY    70  66  88 SE3       30.12F
6HR MIN TEMP:  70; 6HR MAX TEMP:  82;

FLIPPIN        CLOUDY    68  66  94 CALM      30.11R
6HR MIN TEMP:  68; 6HR MAX TEMP:  79;

MTN HOME       CLOUDY    70  67  90 CALM      30.12R
6HR MIN TEMP:  69; 6HR MAX TEMP:  77;

$$

ARZ040-041-280700-
WEST CENTRAL ARKANSAS

CITY           SKY/WX    TMP DP  RH WIND       PRES   REMARKS
MENA           CLEAR     68  66  94 CALM      30.12S
MOUNT IDA      CLEAR     68  66  93 CALM      30.09S
6HR MIN TEMP:  68; 6HR MAX TEMP:  83;

$$

ARZ009-017-025-026-028-280700-
NORTHEAST ARKANSAS

CITY           SKY/WX    TMP DP  RH WIND       PRES   REMARKS
JONESBORO      CLEAR     64  64 100 CALM      30.14R
6HR MIN TEMP:  64; 6HR MAX TEMP:  76;

NEWPORT        CLEAR     69  69 100 SE3       30.14S
6HR MIN TEMP:  69; 6HR MAX TEMP:  80;

WALNUT RIDGE   CLEAR     68  64  88 SE6       30.13S
6HR MIN TEMP:  68; 6HR MAX TEMP:  81;

BLYTHEVILLE    PTCLDY    69  69 100 S7        30.15R
6HR MIN TEMP:  69; 6HR MAX TEMP:  76;

$$

ARZ022-023-033-042-044-280700-
CENTRAL ARKANSAS

CITY           SKY/WX    TMP DP  RH WIND       PRES   REMARKS
LITTLE ROCK    PTCLDY    72  68  87 SE3       30.11S
6HR MIN TEMP:  72; 6HR MAX TEMP:  81;

N LITTLE ROCK    N/A     71  71  98 SE7       30.11S
6HR MIN TEMP:  71; 6HR MAX TEMP:  80;

JACKSONVILLE   PTCLDY    71  71  99 E3        30.10S
6HR MIN TEMP:  71; 6HR MAX TEMP:  83; 6HR PCP: TRACE;

HOT SPRINGS    PTCLDY    72  67  84 E3        30.11R
6HR MIN TEMP:  71; 6HR MAX TEMP:  84;

RUSSELLVILLE   MOCLDY    73  69  87 CALM      30.09S
6HR MIN TEMP:  73; 6HR MAX TEMP:  83;

CLINTON        MOCLDY    68  68 100 CALM      30.14R FOG
$$

ARZ036-280700-
EAST ARKANSAS

CITY           SKY/WX    TMP DP  RH WIND       PRES   REMARKS
WEST MEMPHIS   CLEAR     67  67 100 SE5       30.13R
6HR MIN TEMP:  67; 6HR MAX TEMP:  74;

$$

ARZ050-053-066-070-073-280700-
SOUTHWEST ARKANSAS

CITY           SKY/WX    TMP DP  RH WIND       PRES   REMARKS
CAMDEN         CLEAR     66  64  94 CALM      30.10S FOG
TEXARKANA      MOCLDY    71  69  93 S6        30.07F
6HR MIN TEMP:  71; 6HR MAX TEMP:  83;

EL DORADO      CLEAR     69  67  93 CALM      30.10S
6HR MIN TEMP:  69; 6HR MAX TEMP:  82;

DE QUEEN       FOG       67  67 100 E17       30.06F VSB 1
6HR MIN TEMP:  67; 6HR MAX TEMP:  84;

$$

ARZ056-057-069-280700-
SOUTHEAST ARKANSAS

CITY           SKY/WX    TMP DP  RH WIND       PRES   REMARKS
PINE BLUFF     CLEAR     69  69 100 SE6       30.11S
6HR MIN TEMP:  69; 6HR MAX TEMP:  82;

STUTTGART      CLEAR     70  66  88 MISG      30.11F
6HR MIN TEMP:  70; 6HR MAX TEMP:  79;

MONTICELLO     FOG       70  70 100 SE3       30.11F VSB 1/2
6HR MIN TEMP:  68; 6HR MAX TEMP:  79;


$$




USA.gov is the U.S. government's official web portal to all federal, state and local government web resources and services.